Redmond, OR

12:16 PM PST on November 13, 2019 (GMT -0800)
Roberts Field Airport

Weather History for KRDM - September, 2019

Change the Weather History Date:

Saturday, September 7, 2019

  Actual Average Record
Temperature  
Mean Temperature 70 °F 60 °F  
Max Temperature 86 °F 79 °F 96 °F (1998)
Min Temperature 53 °F 40 °F 26 °F (1960)
Degree Days  
Heating Degree Days 0 6  
Month to date heating degree days 0 38  
Since 1 July heating degree days 47 187  
Cooling Degree Days 5 1  
Month to date cooling degree days 37 7  
Year to date cooling degree days 293 213  
Growing Degree Days 19 (Base 50)    
Moisture  
Dew Point 52 °F    
Average Humidity 63    
Maximum Humidity 93    
Minimum Humidity 32    
Precipitation  
Precipitation 0.00 in 0.02 in 0.20 in (1973)
Month to date precipitation 0.48 0.10  
Year to date precipitation 7.94 5.83  
Sea Level Pressure  
Sea Level Pressure 29.94 in    
Wind  
Wind Speed 7 mph (West)    
Max Wind Speed 29 mph    
Max Gust Speed 35 mph    
Visibility 10 miles    
Events      
T = Trace of Precipitation, MM = Missing Value Source: NWS Daily Summary

Daily Weather History Graph

Daily Weather History Graph

Search for Another Location

Airport or City:

Astronomy

Sep. 07, 2019 Rise Set
Actual Time 6:34 AM PDT 7:30 PM PDT
Civil Twilight 6:04 AM PDT 7:59 PM PDT
Nautical Twilight 5:29 AM PDT 8:34 PM PDT
Astronomical Twilight 4:52 AM PDT 9:11 PM PDT
Moon 4:01 PM PDT (9/7) 12:20 AM PDT (9/7)
Length of Visible Light 13h 54m
Length of Day
12h 55m
Waxing Gibbous, 67% of the Moon is Illuminated
Sep 7
Waxing Gibbous
Sep 13
Full
Sep 21
Last Quarter
Sep 28
New
Oct 5
First Quarter

Hourly Weather History & Observations

Time (PDT) Temp. Heat Index Dew Point Humidity Pressure Visibility Wind Dir Wind Speed Gust Speed Precip Events Conditions
12:56 AM 59.0 °F - 54.0 °F 83% 30.06 in 10.0 mi South 5.8 mph - N/A   Clear
1:56 AM 57.9 °F - 53.1 °F 84% 30.04 in 10.0 mi South 3.5 mph - N/A   Clear
2:56 AM 57.9 °F - 53.1 °F 84% 30.04 in 10.0 mi South 3.5 mph - N/A   Clear
3:56 AM 55.9 °F - 52.0 °F 87% 30.03 in 10.0 mi SSE 5.8 mph - N/A   Clear
4:56 AM 55.9 °F - 51.1 °F 84% 30.03 in 10.0 mi SE 3.5 mph - N/A   Clear
5:56 AM 55.9 °F - 52.0 °F 87% 30.01 in 10.0 mi Calm Calm - N/A   Clear
6:56 AM 54.0 °F - 51.1 °F 90% 30.02 in 10.0 mi Calm Calm - N/A   Clear
7:56 AM 59.0 °F - 53.1 °F 81% 30.03 in 10.0 mi Calm Calm - N/A   Clear
8:56 AM 64.0 °F - 54.0 °F 70% 30.01 in 10.0 mi Calm Calm - N/A   Clear
9:56 AM 70.0 °F - 55.0 °F 59% 29.98 in 10.0 mi Calm Calm - N/A   Clear
10:56 AM 73.9 °F - 55.0 °F 52% 29.96 in 10.0 mi Calm Calm - N/A   Clear
11:56 AM 78.1 °F - 54.0 °F 43% 29.92 in 10.0 mi Calm Calm - N/A   Clear
12:56 PM 81.0 °F 80.4 °F 53.1 °F 38% 29.89 in 10.0 mi Calm Calm - N/A   Clear
1:56 PM 82.0 °F - 52.0 °F 35% 29.87 in 10.0 mi Variable 4.6 mph - N/A   Clear
2:56 PM 84.0 °F - 51.1 °F 32% 29.84 in 10.0 mi Calm Calm - N/A   Clear
3:56 PM 84.9 °F - 51.1 °F 31% 29.82 in 10.0 mi Variable 6.9 mph - N/A   Clear
4:56 PM 75.0 °F - 54.0 °F 48% 29.83 in 10.0 mi WNW 29.9 mph 34.5 mph N/A   Clear
5:04 PM 73.0 °F - 54.0 °F 51% 29.90 in 10.0 mi WNW 21.9 mph 34.5 mph N/A   Clear
5:56 PM 70.0 °F - 52.0 °F 53% 29.84 in 10.0 mi WNW 20.7 mph 32.2 mph N/A   Clear
6:56 PM 66.9 °F - 51.1 °F 57% 29.87 in 10.0 mi WNW 17.3 mph - N/A   Clear
7:56 PM 64.9 °F - 50.0 °F 58% 29.89 in 10.0 mi NW 11.5 mph 21.9 mph N/A   Partly Cloudy
8:56 PM 64.0 °F - 50.0 °F 60% 29.91 in 10.0 mi NW 10.4 mph - N/A   Mostly Cloudy
9:56 PM 63.0 °F - 50.0 °F 63% 29.90 in 10.0 mi NW 9.2 mph - N/A   Partly Cloudy
10:56 PM 62.1 °F - 50.0 °F 65% 29.89 in 10.0 mi WNW 9.2 mph - N/A   Overcast
11:56 PM 60.1 °F - 48.9 °F 67% 29.89 in 10.0 mi NW 11.5 mph - N/A   Mostly Cloudy